Location: ???? ????????
(44.2382°N, 135.4003°E)
Time: 00:38:33
(UTC+00:00)

BREEZE-M DEB (TANK) - Pass Details

Date: 19 May 2025
Orbit: 287 x 20029 km, 49.3° (Epoch: 16 June)

Event Time Altitude Azimuth Distance (km) Brightness Sun altitude
Rises 11:53:35 0° 272° (W) 7,473 9.3 -13.7°
Reaches altitude 10° 12:00:56 10° 278° (W) 4,312 8.1 -14.6°
Maximum altitude 12:08:52 44° 350° (N) 905 4.3 -15.5°
Drops below altitude 10° 12:11:35 10° 67° (ENE) 1,484 4.9 -15.8°
Enters shadow 12:11:46 - 68° (ENE) 1,569 5.0 -15.8°
